Weather reports worldwide

Advertisment
Biarritz, France (7602): temperature & dewpoint: 27.06.2020 18:00:00 - 03.07.2020 18:00:00 (CEST)Biarritz, France (7602): temperature 5cm: 27.06.2020 18:00:00 - 03.07.2020 18:00:00 (CEST)Biarritz, France (7602): temperature -20cm & temperature -100cm: 27.06.2020 18:00:00 - 03.07.2020 18:00:00 (CEST)Biarritz, France (7602): wind speed & gusts: 27.06.2020 18:00:00 - 03.07.2020 18:00:00 (CEST)Biarritz, France (7602): wind direction: 27.06.2020 18:00:00 - 03.07.2020 18:00:00 (CEST)Biarritz, France (7602): reduced air pressure: 27.06.2020 18:00:00 - 03.07.2020 18:00:00 (CEST)Biarritz, France (7602): visibility: 27.06.2020 18:00:00 - 03.07.2020 18:00:00 (CEST)Biarritz, France (7602): sunshine duration: 27.06.2020 18:00:00 - 03.07.2020 18:00:00 (CEST)Biarritz, France (7602): precipitation: 27.06.2020 18:00:00 - 03.07.2020 18:00:00 (CEST)
Date & Time tt [°C] td [°C] tt 5cm [°C] tt -20cm [°C] tt -100cm [°C] ff [km/h] ff [kn] fx [km/h] fx [kn] dd ppp [hPa] vv [km] sd [min] rr [mm]
03.07.2020 18:00:00 20,6 12,3 25,0 22,0 20,2 17 9 34 18 NW 1024,5 24 60 0,0
03.07.2020 17:00:00 20,6 12,6 25,6 21,9 20,2 19 10 32 17 NW 1024,5 24 60 0,0
03.07.2020 16:00:00 20,8 12,5 25,9 21,6 20,2 18 10 34 18 NNW 1024,5 24 60 0,0
03.07.2020 15:00:00 20,6 12,6 26,2 21,2 20,2 16 9 35 19 NW 1024,8 26 60 0,0
03.07.2020 14:00:00 20,4 13,1 22,4 20,9 20,2 18 10 39 21 NW 1024,9 29 53 0,0
03.07.2020 13:00:00 20,3 12,8 21,0 20,7 20,2 17 9 32 17 NNW 1024,9 47 53 0,0
03.07.2020 12:00:00 19,9 11,4 23,4 20,5 20,2 15 8 38 20 NW 1024,8 36 56 0,0
03.07.2020 11:00:00 20,0 12,7 22,1 20,5 20,2 14 8 27 14 NNW 1024,3 37 53 0,0
03.07.2020 10:00:00 18,9 11,9 17,2 20,4 20,2 8 5 16 9 NW 1024,2 47 6 0,0
03.07.2020 09:00:00 18,3 11,6 17,9 20,5 20,2 8 4 18 10 N 1024,0 49 35 0,0
03.07.2020 08:00:00 18,2 11,3 16,7 20,6 20,2 4 2 9 5 N 1023,9 36 60 0,0
03.07.2020 07:00:00 17,2 11,7 15,3 20,7 20,2 0 0 7 4 N 1023,7 32 5 0,0
03.07.2020 06:00:00 16,3 13,2 14,2 20,7 20,2 4 2 10 5 SSE 1023,4 32 0 0,0
03.07.2020 05:00:00 17,7 13,0 15,6 20,9 20,2 3 1 9 5 ENE 1023,2 36 0 0,0
03.07.2020 04:00:00 16,7 13,6 15,6 20,9 20,2 3 1 8 4 SE 1023,3 40 0 0,0
03.07.2020 03:00:00 17,8 12,7 15,9 21,0 20,2 3 1 8 4 N 1023,4 58 0 0,0
03.07.2020 02:00:00 17,9 12,1 16,1 21,1 20,2 5 3 11 6 NNW 1023,4 56 0 0,0
03.07.2020 01:00:00 18,2 11,5 17,0 21,2 20,2 5 3 16 9 NNW 1023,4 60 0 0,0
03.07.2020 00:00:00 18,4 11,2 17,5 21,3 20,2 6 3 14 8 NNW 1023,2 60 0 0,0
02.07.2020 23:00:00 18,4 12,6 17,4 21,4 20,2 8 5 18 10 NNW 1022,9 59 0 0,0
02.07.2020 22:00:00 18,7 12,2 17,9 21,5 20,3 11 6 20 11 N 1022,3 59 0 0,0
02.07.2020 21:00:00 18,9 12,4 18,5 21,5 20,2 11 6 22 12 NNW 1022,1 60 0 0,0
02.07.2020 20:00:00 19,1 13,1 19,2 21,5 20,3 11 6 25 14 NW 1021,6 52 0 0,0
02.07.2020 19:00:00 19,6 13,8 20,0 21,5 20,2 14 8 26 14 NNW 1021,3 52 0 0,0
02.07.2020 18:00:00 19,5 15,2 20,4 21,4 20,2 14 8 25 13 NW 1021,1 42 17 0,0
02.07.2020 17:00:00 18,2 14,5 16,7 21,5 20,3 8 4 24 13 NNE 1020,8 17 0 0,4
02.07.2020 16:00:00 19,1 15,4 19,5 21,4 20,2 8 5 20 11 WSW 1020,9 20 0 0,0
02.07.2020 15:00:00 18,9 14,6 19,9 21,4 20,2 12 6 18 10 WNW 1020,7 43 0 0,0
02.07.2020 14:00:00 17,9 16,2 17,7 21,3 20,2 5 3 27 15 NE 1020,5 34 0 0,0
02.07.2020 13:00:00 18,1 15,4 17,4 21,3 20,2 12 7 21 11 NNW 1020,1 28 0 0,0
02.07.2020 12:00:00 17,2 15,9 16,8 21,3 20,2 12 6 23 12 NNW 1019,9 6 0 0,0
02.07.2020 11:00:00 17,1 16,3 16,7 21,4 20,2 13 7 24 13 NNW 1019,4 5 0 0,2
02.07.2020 10:00:00 18,3 15,4 16,9 21,4 20,2 7 4 14 8 NNW 1019,1 41 0 0,0
02.07.2020 09:00:00 17,1 16,3 16,5 21,5 20,2 4 2 11 6 SW 1018,7 5 0 1,2
02.07.2020 08:00:00 16,9 16,3 16,3 21,5 20,2 5 3 11 6 S 1018,2 14 0 0,0
02.07.2020 07:00:00 17,0 16,0 16,0 21,6 20,2 4 2 13 7 SSW 1017,9 20 0 0,2
02.07.2020 06:00:00 16,9 15,8 16,1 21,7 20,2 11 6 21 11 WNW 1017,7 4,7 0 0,0
02.07.2020 05:00:00 17,8 14,9 16,3 21,8 20,2 11 6 22 12 WNW 1017,5 25 0 0,0
02.07.2020 04:00:00 18,3 15,0 17,5 21,9 20,2 14 8 23 12 WNW 1017,6 35 0 0,0
02.07.2020 03:00:00 19,0 15,9 17,5 22,0 20,2 13 7 30 16 NNW 1017,5 40 0 0,0
02.07.2020 02:00:00 19,6 15,7 18,8 22,1 20,2 15 8 28 15 NNW 1017,8 20 0 0,0
02.07.2020 01:00:00 19,8 17,0 19,2 22,1 20,2 12 7 24 13 N 1017,6 13 0 0,0
02.07.2020 00:00:00 20,1 17,5 19,4 22,2 20,2 12 7 25 13 N 1017,7 38 0 0,0
01.07.2020 23:00:00 20,4 18,0 19,4 22,3 20,2 7 4 11 6 NNW 1017,4 29 0 0,0
01.07.2020 22:00:00 20,3 17,9 19,5 22,3 20,2 6 3 15 8 NNW 1016,7 30 0 0,0
01.07.2020 21:00:00 20,6 17,4 20,2 22,3 20,2 8 5 20 11 NNW 1016,4 43 16 0,0
01.07.2020 20:00:00 21,3 17,1 21,2 22,2 20,2 15 8 25 13 NW 1016,6 52 9 0,0
01.07.2020 19:00:00 22,2 17,1 24,0 22,2 20,1 10 5 19 10 WNW 1016,2 52 19 0,0
01.07.2020 18:00:00 21,9 16,8 23,8 22,1 20,1 10 6 23 13 NW 1016,3 59 2 0,0
01.07.2020 17:00:00 22,1 15,9 23,8 22,0 20,2 13 7 25 14 NW 1016,2 54 2 0,0
01.07.2020 16:00:00 21,8 17,0 23,2 21,9 20,1 13 7 32 17 WNW 1016,2 54 0 0,0
01.07.2020 15:00:00 21,4 16,6 22,5 21,9 20,1 16 9 28 15 NW 1015,9 39 0 0,0
01.07.2020 14:00:00 22,1 17,5 21,4 21,8 20,1 16 9 26 14 NW 1015,4 49 2 0,0
01.07.2020 13:00:00 20,7 17,3 21,1 21,7 20,1 14 8 22 12 NW 1015,2 49 0 0,0
01.07.2020 12:00:00 21,4 17,2 22,4 21,7 20,1 13 7 22 12 NW 1014,6 50 1 0,0
01.07.2020 11:00:00 21,6 17,6 22,0 21,6 20,1 15 8 24 13 W 1014,3 20 16 0,0
01.07.2020 10:00:00 21,0 16,8 21,3 21,6 20,1 14 7 21 12 WNW 1014,2 52 37 0,0
01.07.2020 09:00:00 20,4 16,8 20,0 21,7 20,1 11 6 18 10 WNW 1013,6 48 4 0,0
01.07.2020 08:00:00 20,1 17,3 18,6 21,7 20,1 9 5 16 9 WNW 1013,2 44 7 0,0
01.07.2020 07:00:00 19,6 16,8 18,7 21,8 20,1 11 6 20 11 WNW 1012,9 44 4 0,0
01.07.2020 06:00:00 19,5 17,6 17,7 21,9 20,1 9 5 18 10 W 1012,7 32 0 0,0
01.07.2020 05:00:00 19,3 18,0 17,7 21,9 20,1 10 5 22 12 W 1012,6 32 0 0,0
01.07.2020 04:00:00 20,1 18,0 19,2 22,0 20,1 11 6 18 10 W 1012,4 39 0 0,0
01.07.2020 03:00:00 20,2 18,0 19,0 22,1 20,1 11 6 21 11 W 1012,5 41 0 0,0
01.07.2020 02:00:00 20,0 18,0 18,5 22,2 20,1 9 5 21 12 W 1012,8 38 0 0,0
01.07.2020 01:00:00 20,0 18,0 18,5 22,3 20,1 13 7 23 13 W 1013,5 39 0 0,0
01.07.2020 00:00:00 20,0 18,0 18,5 22,4 20,1 17 9 24 13 WNW 1013,5 24 0 0,0
30.06.2020 23:00:00 20,4 17,6 18,1 22,5 20,0 12 7 17 9 N 1012,3 20 0 0,0
30.06.2020 22:00:00 20,6 17,6 19,4 22,6 20,1 7 4 14 8 WNW 1013,0 39 21 0,0
30.06.2020 21:00:00 21,8 16,7 22,7 22,7 20,0 10 5 23 12 NNW 1012,4 39 60 0,0
30.06.2020 20:00:00 22,6 16,6 23,7 22,7 20,1 16 9 26 14 N 1012,3 41 60 0,0
30.06.2020 19:00:00 23,1 17,1 26,1 22,7 20,1 16 9 29 16 NNW 1012,9 36 60 0,0
30.06.2020 18:00:00 23,4 16,9 27,3 22,6 20,1 19 10 27 14 NNW 1013,3 38 60 0,0
30.06.2020 17:00:00 23,9 16,7 28,4 22,4 20,1 15 8 40 21 NNW 1013,7 44 60 0,0
30.06.2020 16:00:00 24,2 17,2 28,8 22,0 20,1 11 6 25 14 NNE 1014,1 19 60 0,0
30.06.2020 15:00:00 25,6 13,4 29,9 21,7 20,1 15 8 28 15 NE 1014,5 59 60 0,0
30.06.2020 14:00:00 24,3 14,1 29,0 21,3 20,1 15 8 27 15 E 1015,0 60 60 0,0
30.06.2020 13:00:00 23,6 14,6 27,8 21,1 20,1 10 6 24 13 E 1015,6 20 60 0,0
30.06.2020 12:00:00 22,5 15,3 26,2 20,8 20,1 11 6 24 13 E 1016,0 44 60 0,0
30.06.2020 11:00:00 21,2 14,8 23,8 20,7 20,0 11 6 23 12 ENE 1016,6 60 60 0,0
30.06.2020 10:00:00 19,9 14,0 18,4 20,7 20,0 11 6 21 11 E 1017,0 39 60 0,0
30.06.2020 09:00:00 18,3 14,4 16,5 20,8 20,0 9 5 14 8 E 1017,1 24 60 0,0
30.06.2020 08:00:00 16,4 14,2 13,1 20,9 20,1 6 4 11 6 ESE 1017,4 18 56 0,0
30.06.2020 07:00:00 14,4 13,6 12,3 21,0 20,1 8 5 13 7 SSE 1017,7 26 0 0,0
30.06.2020 06:00:00 14,5 13,7 11,8 21,2 20,0 9 5 12 7 SE 1017,8 16 0 0,0
30.06.2020 05:00:00 15,2 13,9 11,4 21,3 20,1 6 4 9 5 SSE 1018,0 22 0 0,0
30.06.2020 04:00:00 15,2 13,6 11,2 21,4 20,0 7 4 8 4 SSE 1018,5 31 0 0,0
30.06.2020 03:00:00 15,4 13,6 11,7 21,6 20,0 3 2 8 4 S 1018,9 33 0 0,0
30.06.2020 02:00:00 15,8 13,6 12,7 21,7 20,0 6 3 8 5 SSE 1019,4 36 0 0,0
30.06.2020 01:00:00 16,9 14,2 12,6 21,9 20,0 6 3 7 4 SSE 1019,7 39 0 0,0
30.06.2020 00:00:00 17,2 13,7 13,2 22,0 20,0 2 1 5 3 NNW 1019,8 14 0 0,0
29.06.2020 23:00:00 18,0 13,5 15,7 22,1 20,0 4 2 8 4 NW 1020,0 53 0 0,0
29.06.2020 22:00:00 18,4 13,7 16,6 22,2 20,0 6 3 12 7 NNW 1019,7 57 22 0,0
29.06.2020 21:00:00 19,4 13,6 20,3 22,2 20,0 9 5 21 11 N 1019,9 47 57 0,0
29.06.2020 20:00:00 20,1 14,0 21,4 22,2 20,0 11 6 21 12 NNW 1019,9 34 60 0,0
29.06.2020 19:00:00 20,1 14,2 21,9 22,1 20,0 10 6 22 12 NNW 1020,1 53 50 0,0
29.06.2020 18:00:00 20,3 13,5 24,0 22,0 20,0 12 7 28 15 NNW 1020,5 42 60 0,0
29.06.2020 17:00:00 21,2 14,4 25,5 21,9 20,0 15 8 26 14 NNW 1020,8 37 60 0,0
29.06.2020 16:00:00 21,0 14,2 25,0 21,7 20,0 13 7 26 14 WNW 1021,1 0,8 33 0,0
29.06.2020 15:00:00 20,4 13,8 23,9 21,6 20,0 12 7 29 16 NW 1021,5 34 23 0,0
29.06.2020 14:00:00 20,5 14,6 24,1 21,4 20,0 15 8 27 15 NNW 1021,9 20 37 0,0
29.06.2020 13:00:00 20,2 14,8 22,4 21,3 20,0 14 8 26 14 NNW 1022,1 38 1 0,0
29.06.2020 12:00:00 19,9 14,0 22,5 21,3 20,0 15 8 27 14 NW 1021,9 41 7 0,0
29.06.2020 11:00:00 19,8 14,2 19,0 21,3 20,0 13 7 24 13 NNW 1021,5 50 4 0,0
29.06.2020 10:00:00 18,9 14,6 18,5 21,4 20,0 14 7 21 11 NW 1021,7 55 0 0,0
29.06.2020 09:00:00 18,8 14,9 18,1 21,4 19,9 14 7 25 13 NW 1021,5 55 0 0,0
29.06.2020 08:00:00 18,7 15,0 17,9 21,5 19,9 16 9 27 14 NW 1021,2 53 0 0,0
29.06.2020 07:00:00 18,8 15,5 17,7 21,6 19,9 15 8 30 16 NW 1020,8 60 0 0,0
29.06.2020 06:00:00 18,8 15,3 17,1 21,7 20,0 17 9 31 17 NW 1020,4 60 0 0,0
29.06.2020 05:00:00 18,9 16,5 17,2 21,8 20,0 19 10 34 18 NW 1020,4 43 0 0,2
29.06.2020 04:00:00 19,5 18,0 18,5 21,8 19,9 21 11 34 18 W 1020,2 27 0 0,0
29.06.2020 03:00:00 20,0 18,0 19,3 21,9 19,9 21 11 31 17 WNW 1020,3 40 0 0,0
29.06.2020 02:00:00 20,6 17,4 19,7 22,0 19,9 19 10 31 17 W 1020,4 49 0 0,0
29.06.2020 01:00:00 20,7 17,3 19,7 22,1 19,9 10 5 24 13 W 1020,6 49 0 0,0
29.06.2020 00:00:00 20,9 17,5 19,9 22,2 19,9 10 5 19 10 W 1020,7 45 0 0,0
28.06.2020 23:00:00 20,9 17,1 19,4 22,2 19,9 13 7 21 12 W 1020,6 48 0 0,0
28.06.2020 22:00:00 20,9 17,1 19,5 22,3 19,9 9 5 19 10 W 1020,3 44 16 0,0
28.06.2020 21:00:00 21,8 16,7 21,9 22,3 19,9 13 7 23 12 WNW 1019,9 43 60 0,0
28.06.2020 20:00:00 23,4 16,2 24,6 22,3 19,9 14 8 21 11 WNW 1019,5 41 60 0,0
28.06.2020 19:00:00 24,6 16,3 28,4 22,3 19,9 10 6 23 12 NW 1019,1 37 60 0,0
28.06.2020 18:00:00 25,0 16,4 29,8 22,2 19,9 8 4 19 11 WNW 1019,2 54 60 0,0
28.06.2020 17:00:00 24,1 17,1 28,8 22,0 19,9 9 5 23 13 N 1019,3 26 60 0,0
28.06.2020 16:00:00 24,0 17,7 26,1 21,8 19,9 8 4 22 12 NW 1019,6 20 37 0,0
28.06.2020 15:00:00 22,2 16,9 24,2 21,7 19,9 8 4 16 9 NNW 1019,8 23 12 0,0
28.06.2020 14:00:00 21,7 16,4 22,6 21,6 19,9 4 2 14 7 NE 1020,0 43 1 0,0
28.06.2020 13:00:00 20,9 15,9 22,2 21,6 19,9 8 4 13 7 NNW 1020,2 46 0 0,0
28.06.2020 12:00:00 20,9 15,7 22,1 21,5 19,9 2 1 11 6 W 1020,5 52 0 0,0
28.06.2020 11:00:00 19,9 16,1 20,4 21,5 19,9 6 4 14 8 NNW 1020,4 45 0 0,0
28.06.2020 10:00:00 19,4 16,4 19,8 21,6 19,9 4 2 10 5 E 1020,5 54 0 0,0
28.06.2020 09:00:00 18,9 17,2 18,4 21,6 19,8 5 3 10 6 S 1020,1 37 0 0,0
28.06.2020 08:00:00 18,8 16,9 18,3 21,7 19,9 5 3 10 5 S 1019,9 27 0 0,0
28.06.2020 07:00:00 19,5 15,8 18,5 21,8 19,9 3 1 10 6 WNW 1019,4 60 0 0,0
28.06.2020 06:00:00 19,7 15,6 18,8 21,9 19,9 6 3 13 7 NW 1019,4 60 0 0,0
28.06.2020 05:00:00 19,8 15,4 18,9 22,0 19,9 8 5 16 9 NW 1019,5 60 0 0,0
28.06.2020 04:00:00 19,9 16,1 19,0 22,0 19,8 8 5 16 8 NW 1019,3 60 0 0,0
28.06.2020 03:00:00 20,1 17,1 19,2 22,2 19,8 8 5 18 10 NNW 1019,4 59 0 0,0
28.06.2020 02:00:00 20,2 17,0 19,2 22,3 19,8 9 5 23 12 NW 1019,5 52 0 0,0
28.06.2020 01:00:00 20,2 18,1 19,6 22,4 19,8 15 8 30 16 NNW 1019,5 35 0 0,0
28.06.2020 00:00:00 21,0 18,8 20,2 22,5 19,8 12 7 25 13 NNW 1018,9 47 0 0,0
27.06.2020 23:00:00 21,9 16,0 20,6 22,6 19,8 10 5 16 9 NNW 1018,3 59 0 0,0
27.06.2020 22:00:00 22,4 14,3 20,7 22,7 19,8 10 5 18 10 NNW 1017,1 60 20 0,0
27.06.2020 21:00:00 23,6 14,3 23,3 22,8 19,9 11 6 21 11 N 1016,6 56 53 0,0
27.06.2020 20:00:00 24,5 15,4 25,3 22,8 19,8 12 6 21 11 N 1016,5 42 60 0,0
27.06.2020 19:00:00 25,0 15,3 25,1 22,8 19,8 9 5 16 9 N 1016,3 48 18 0,0
27.06.2020 18:00:00 24,7 15,6 25,7 22,7 19,8 13 7 26 14 NNW 1016,6 20 37 0,0

tt = temperature
td = dewpoint
tt 5cm = temperature 5cm
tt -20cm = temperature -20cm
tt -100cm = temperature -100cm
ff = wind speed
fx = gusts
dd = wind direction
ppp = reduced air pressure
vv = visibility
sd = sunshine duration
rr = precipitation

Next stations